Home   Weather   Kelowna   Past weeks
Flag for Canada

Past Weather in Kelowna, British Columbia, Canada — Yesterday and Last 2 Weeks

Now
43 °F

Overcast.


Feels Like: 43 °F
Forecast: 56 / 41 °F
Wind: 2 mph from North

Location: Kelowna Airport

Current Time: Oct 16, 2019 at 3:00:02 am

Latest Report: Oct 16, 2019 at 2:00 am


Visibility: 9 mi

Pressure: 29.97 "Hg

Humidity: 93%

Dew Point: 41 °F

Location of KelownaLocation

Past Weather in Kelowna — Graph

°F

Kelowna Temperature Yesterday

Maximum temperature yesterday: 48 °F (at 1:00 pm)
Minimum temperature yesterday: 36 °F (at 12:00 am)
Average temperature yesterday: 43 °F

High & Low Weather Summary for the Past Weeks

 TemperatureHumidityPressure
High61 °F (Oct 5, 3:00 pm)100% (Oct 1, 4:00 am)30.60 "Hg (Oct 1, 4:00 am)
Low23 °F (Oct 10, 1:00 am)34% (Oct 9, 3:00 pm)29.56 "Hg (Oct 7, 9:00 pm)
Average44 °F77%30.12 "Hg
* Reported Oct 1 1:00 am — Oct 16 1:00 am, Kelowna. Weather by CustomWeather, © 2019

Note: Actual official high and low records may vary slightly from our data, if they occured in-between our weather recording intervals... More about our weather records

Advertising

Kelowna Weather History for the Previous 24 Hours

Scroll right to see more
 ConditionsComfort  
Time TempWeatherWind HumidityBarometerVisibility
1:00 am
Wed, Oct 16
43 °FPartly cloudy.7 mph93%29.98 "Hg9 mi
12:00 am45 °FMostly cloudy.5 mph87%29.96 "Hg9 mi
11:00 pm
Tue, Oct 15
45 °FOvercast.2 mph87%29.98 "Hg9 mi
10:00 pm43 °FOvercast.3 mph93%29.98 "Hg9 mi
9:00 pm39 °FPassing clouds.5 mph100%30.00 "Hg9 mi
8:00 pm45 °FMostly cloudy.5 mph93%30.00 "Hg9 mi
7:00 pm45 °FOvercast.No wind93%30.00 "Hg9 mi
6:00 pm48 °FOvercast.6 mph82%30.01 "Hg9 mi
5:00 pm48 °FOvercast.5 mph82%30.00 "Hg9 mi
4:00 pm48 °FScattered clouds.3 mph82%29.99 "Hg9 mi
3:00 pm48 °FMostly cloudy.No wind76%30.00 "Hg9 mi
2:00 pm48 °FSunny.No wind76%30.01 "Hg9 mi
1:00 pm48 °FPassing clouds.No wind76%30.03 "Hg9 mi
12:00 pm46 °FScattered clouds.No wind82%30.05 "Hg9 mi
11:00 am46 °FOvercast.No wind82%30.07 "Hg9 mi
10:00 am43 °FCloudy.2 mph87%30.09 "Hg9 mi
9:03 am41 °FPassing clouds.2 mph93%30.09 "Hg9 mi
8:59 am41 °FFog.3 mph93%30.10 "Hg2 mi
8:11 am36 °FFog.5 mph100%30.11 "Hg1 mi
3:00 am36 °FPassing clouds.3 mph100%30.16 "Hg9 mi
Weather by CustomWeather, © 2019

See weather overview